Home > Weather > Paderborn > Past weeks

Flag for Germany Weather for the Past 2 Weeks in Paderborn, North Rhine-Westphalia, Germany

Now
37 °F

Passing clouds.


Feels Like: 30 °F
Forecast: 36 / 40 °F
Wind: 12 mph from West

Location: Paderborn / Lippstadt

Current Time: Feb 10, 2016 at 11:52:10 PM

Latest Report: Feb 10, 2016 at 10:50 PM


Visibility: N/A

Pressure: 29.47 "Hg

Humidity: 93%

Dew point: 36 °F

Location of PaderbornLocation

Historic Weather in Paderborn — Graph

°F

Paderborn Temperature Yesterday

Maximum temperature yesterday: 46 °F (at 4:50 PM)
Minimum temperature yesterday: 32 °F (at 9:50 PM)
Average temperature yesterday: 41 °F

High & Low Weather Summary for the Past Weeks

 TemperatureHumidityPressure
High52 °F (Jan 27, 7:20 PM)100% (Jan 28, 5:50 AM)30.30 "Hg (Jan 28, 5:50 AM)
Low32 °F (Jan 30, 8:20 PM)53% (Feb 3, 3:20 PM)28.82 "Hg (Feb 9, 5:50 PM)
Average42 °F80%29.82 "Hg
* Reported Jan 26 9:20 PM — Feb 10 9:50 PM, Paderborn, Weather by CustomWeather, © 2016

Note: Actual official high and low records may vary slightly from our data, if they occured in-between our weather recording intervals... More about our weather records

Advertising

Paderborn Weather History for the Previous 24 Hours

 ConditionsComfort  
Time TempWeatherWind HumidityBarometerVisibility
9:50 PM
Wed, Feb 10
37 °FLight rain. Passing clouds.14 mph93%29.45 "Hg6 mi
9:20 PM37 °FPassing clouds.12 mph93%29.45 "HgN/A
8:50 PM37 °FPassing clouds.12 mph93%29.42 "HgN/A
8:20 PM37 °FLight rain. Partly cloudy.9 mph93%29.42 "Hg5 mi
7:50 PM37 °FRain. Partly cloudy.14 mph87%29.39 "Hg4 mi
7:20 PM37 °FRain. Passing clouds.13 mph87%29.39 "HgN/A
6:50 PM37 °FLight rain. Partly cloudy.16 mph87%29.36 "HgN/A
6:20 PM37 °FPartly cloudy.15 mph87%29.36 "HgN/A
5:50 PM36 °FPartly cloudy.13 mph93%29.36 "HgN/A
5:20 PM37 °FBroken clouds.12 mph87%29.36 "HgN/A
4:50 PM37 °FLight rain. Broken clouds.14 mph87%29.33 "HgN/A
4:20 PM37 °FBroken clouds.10 mph87%29.33 "HgN/A
3:50 PM37 °FLight rain. Broken clouds.12 mph87%29.33 "HgN/A
3:20 PM37 °FDrizzle. Broken clouds.13 mph87%29.33 "Hg6 mi
2:50 PM37 °FBroken clouds.12 mph87%29.30 "HgN/A
2:20 PM37 °FBroken clouds.12 mph87%29.30 "HgN/A
1:50 PM37 °FBroken clouds.16 mph87%29.30 "HgN/A
1:20 PM36 °FBroken clouds.16 mph93%29.30 "HgN/A
12:50 PM37 °FBroken clouds.13 mph87%29.30 "HgN/A
12:20 PM37 °FPartly sunny.16 mph81%29.30 "HgN/A
11:50 AM36 °FBroken clouds.16 mph87%29.30 "HgN/A
11:20 AM36 °FBroken clouds.16 mph87%29.27 "HgN/A
10:50 AM34 °FScattered clouds.17 mph93%29.27 "HgN/A
10:20 AM34 °FPartly sunny.14 mph93%29.27 "HgN/A
9:50 AM34 °FRain. Broken clouds.15 mph93%29.27 "Hg5 mi
9:20 AM34 °FRain. Broken clouds.12 mph93%29.24 "Hg4 mi
8:50 AM36 °FPartly sunny.14 mph87%29.24 "HgN/A
8:20 AM36 °FScattered clouds.13 mph87%29.24 "HgN/A
7:50 AM36 °FLight rain. Partly sunny.15 mph87%29.24 "HgN/A
7:20 AM36 °FPassing clouds.13 mph87%29.21 "HgN/A
6:50 AM34 °FPassing clouds.13 mph87%29.21 "HgN/A
6:20 AM36 °FPassing clouds.13 mph87%29.21 "HgN/A
5:50 AM34 °FLight rain. Partly cloudy.8 mph93%29.24 "HgN/A
5:20 AM34 °FLight rain. Partly cloudy.15 mph93%29.24 "Hg6 mi
4:50 AM36 °FPassing clouds.12 mph81%29.24 "HgN/A
4:20 AM34 °FPassing clouds.12 mph87%29.24 "HgN/A
3:50 AM36 °FPassing clouds.10 mph81%29.21 "HgN/A
3:20 AM34 °FPassing clouds.10 mph87%29.21 "HgN/A
2:50 AM36 °FPassing clouds.13 mph87%29.21 "HgN/A
2:20 AM36 °FPassing clouds.14 mph87%29.21 "HgN/A
1:20 AM36 °FPassing clouds.15 mph81%29.21 "HgN/A
12:50 AM36 °FPassing clouds.15 mph87%29.21 "HgN/A
12:20 AM36 °FPartly cloudy.18 mph87%29.18 "HgN/A
11:50 PM
Tue, Feb 9
36 °FLight rain. Passing clouds.17 mph87%29.15 "HgN/A
11:20 PM36 °FLight rain. Passing clouds.20 mph93%29.15 "HgN/A
Weather by CustomWeather, © 2016

See weather overviewHow to use our weather pages